Simultaneous Nadir Overpasses (SNOs) Predictions

Prediction of SNOs between METOP-C and LANDSAT-8 Satellite Orbit:

Table of predicted SNOs for the next 14.0 days since TLE Epoch: 2/25/2023
Index Date (METOP-C) Time (METOP-C) Lat,Lon (METOP-C) SZA (METOP-C ) Date (LANDSAT-8) Time (LANDSAT-8) Lat,Lon (LANDSAT-8) SZA (LANDSAT-8 ) Distance(km) Time Diff (sec)
1 02/27/2023 16:28:26 81.10, -28.11 90.98 02/27/2023 16:29:11 81.10, -28.12 90.99 0.31 45
2 02/27/2023 17:19:06 -81.13, 139.98 88.95 02/27/2023 17:18:37 -81.12, 139.80 88.98 3.19 29
3 03/02/2023 12:02:47 81.11, 38.56 89.96 03/02/2023 12:03:26 81.10, 38.40 89.96 2.74 39
4 03/02/2023 12:53:28 -81.12,-153.69 90.01 03/02/2023 12:52:52 -81.12,-153.65 90.02 0.69 36
5 03/05/2023 07:37:09 81.10, 104.79 88.88 03/05/2023 07:37:41 81.10, 104.73 88.88 1.31 32
6 03/05/2023 08:27:50 -81.12, -87.43 91.09 03/05/2023 08:27:07 -81.12, -87.31 91.09 2.12 43
7 03/08/2023 03:11:29 81.11, 171.33 87.82 03/08/2023 03:11:54 81.10, 171.21 87.81 2.33 25
8 03/08/2023 04:02:10 -81.12, -20.87 92.14 03/08/2023 04:01:20 -81.12, -20.81 92.16 1.10 50
9 03/10/2023 22:45:50 81.11,-122.20 86.75 03/10/2023 22:46:07 81.11,-122.16 86.76 0.71 17



Historial Predications of SNOs between METOP-C and LANDSAT-8
